TimeEDT,TemperatureF,Dew PointF,Humidity,Sea Level PressureIn,VisibilityMPH,Wind Direction,Wind SpeedMPH,Gust SpeedMPH,PrecipitationIn,Events,Conditions,WindDirDegrees,DateUTC
12:56 AM,54.0,52.0,93,30.12,10.0,West,5.8,-,N/A,,Clear,260,2012-10-11 04:56:00
1:56 AM,57.0,51.1,81,30.13,10.0,NW,8.1,-,N/A,,Clear,310,2012-10-11 05:56:00
2:56 AM,57.0,50.0,77,30.14,10.0,NW,6.9,-,N/A,,Clear,310,2012-10-11 06:56:00
3:56 AM,55.9,50.0,80,30.15,10.0,NNW,8.1,-,N/A,,Clear,330,2012-10-11 07:56:00
4:56 AM,55.0,48.9,80,30.17,10.0,NNW,6.9,-,N/A,,Clear,340,2012-10-11 08:56:00
5:56 AM,54.0,46.9,77,30.19,10.0,NNW,10.4,-,N/A,,Clear,340,2012-10-11 09:56:00
6:56 AM,53.1,46.0,77,30.22,10.0,North,9.2,-,N/A,,Clear,350,2012-10-11 10:56:00
7:56 AM,53.1,46.0,77,30.24,10.0,North,8.1,-,N/A,,Clear,350,2012-10-11 11:56:00
8:56 AM,57.0,46.0,67,30.27,10.0,North,9.2,-,N/A,,Clear,10,2012-10-11 12:56:00
9:56 AM,60.1,46.9,62,30.28,10.0,NE,12.7,-,N/A,,Clear,40,2012-10-11 13:56:00
10:56 AM,64.0,45.0,50,30.29,10.0,NNE,13.8,-,N/A,,Clear,30,2012-10-11 14:56:00
11:56 AM,66.0,44.1,45,30.29,10.0,NNE,13.8,-,N/A,,Clear,30,2012-10-11 15:56:00
12:56 PM,68.0,46.0,45,30.28,10.0,NNE,6.9,-,N/A,,Clear,30,2012-10-11 16:56:00
1:56 PM,68.0,46.0,45,30.26,10.0,North,8.1,-,N/A,,Clear,10,2012-10-11 17:56:00
2:56 PM,69.1,45.0,42,30.25,10.0,SE,4.6,-,N/A,,Clear,140,2012-10-11 18:56:00
3:56 PM,69.1,45.0,42,30.25,10.0,Calm,Calm,-,N/A,,Clear,0,2012-10-11 19:56:00
4:56 PM,69.1,46.9,45,30.24,10.0,ESE,4.6,-,N/A,,Clear,120,2012-10-11 20:56:00
7:56 PM,57.0,52.0,83,30.25,10.0,Calm,Calm,-,N/A,,Clear,0,2012-10-11 23:56:00
8:56 PM,54.0,52.0,93,30.27,10.0,Calm,Calm,-,N/A,,Clear,0,2012-10-12 00:56:00
9:56 PM,53.1,50.0,89,30.27,10.0,Calm,Calm,-,N/A,,Clear,0,2012-10-12 01:56:00
10:56 PM,52.0,50.0,93,30.27,10.0,Calm,Calm,-,N/A,,Clear,0,2012-10-12 02:56:00
11:56 PM,51.1,48.9,92,30.25,5.0,Calm,Calm,-,N/A,,Clear,0,2012-10-12 03:56:00